EW4554 Weather Reports


time (UTC)temp
C
wind
direction
speed
KPH
gust
KPH
rain 1hr
cm
rain 24hr
cm
rain mn
cm
humidity
%
barometer
mb
20210927070026 13 281 0.0 0.0 0.00 0.03 0.03 93 1023.0
20210927064531 13 282 0.0 0.0 0.00 0.03 0.03 93 1023.0
20210927063026 13 281 0.0 0.0 0.00 0.03 0.03 93 1023.1
20210927061529 13 282 0.0 0.0 0.00 0.03 0.03 93 1022.8
20210927060014 13 281 0.0 0.0 0.00 0.03 0.03 93 1022.7
20210927054511 13 282 0.0 0.0 0.00 0.03 0.03 93 1022.7
20210927053019 13 281 0.0 0.0 0.00 0.03 0.03 93 1022.6
20210927051519 13 281 0.0 0.0 0.00 0.03 0.03 93 1022.6
20210927050015 13 282 0.0 0.0 0.00 0.03 0.03 93 1022.5
20210927044538 13 281 0.0 0.0 0.03 0.03 0.03 93 1022.6
20210927043012 13 281 0.0 0.0 0.03 0.03 0.03 93 1022.5
20210927041506 13 281 0.0 0.0 0.03 0.03 0.03 93 1022.6
20210927040015 13 282 0.0 0.0 0.03 0.03 0.03 93 1022.6
20210927033256 13 282 0.0 0.0 0.00 0.00 0.00 93 1022.4
20210927031717 12 282 0.0 0.0 0.00 0.00 0.00 93 1022.4
20210927030140 12 282 0.0 0.0 0.00 0.00 0.00 93 1022.5
20210927024627 12 282 0.0 0.0 0.00 0.00 0.00 93 1022.5
20210927023143 12 281 0.0 0.0 0.00 0.00 0.00 93 1022.5
20210927021654 12 282 0.0 0.0 0.00 0.00 0.00 93 1022.6
20210927020117 11 282 0.0 0.0 0.00 0.00 0.00 93 1022.6
20210927014614 11 282 0.0 0.0 0.00 0.00 0.00 92 1022.7
20210927013145 11 282 0.0 0.0 0.00 0.00 0.00 92 1022.6
20210927011617 10 282 0.0 0.0 0.00 0.00 0.00 91 1022.5
20210927010111 11 282 0.0 0.0 0.00 0.00 0.00 91 1022.5
20210927004634 11 282 0.0 0.0 0.00 0.00 0.00 91 1022.6
20210927003107 11 282 0.0 0.0 0.00 0.00 0.00 91 1022.5
20210927001705 11 282 0.0 0.0 0.00 0.00 0.00 91 1022.6
20210927000048 11 282 0.0 0.0 0.00 0.00 0.00 91 1022.5
20210926234554 11 282 0.0 0.0 0.00 0.00 0.00 91 1022.4
20210926233128 12 282 0.0 0.0 0.00 0.00 0.00 90 1022.6
20210926231543 12 282 0.0 0.0 0.00 0.00 0.00 91 1022.5
20210926230109 12 282 0.0 0.0 0.00 0.00 0.00 90 1022.5
20210926224553 12 282 0.0 0.0 0.00 0.00 0.00 90 1022.5
20210926223059 12 282 0.0 0.0 0.00 0.00 0.00 90 1022.5
20210926221629 13 282 0.0 0.0 0.00 0.00 0.00 90 1022.5
20210926220039 13 282 0.0 0.0 0.00 0.00 0.00 90 1022.5
20210926214538 13 282 0.0 0.0 0.00 0.00 0.00 89 1022.5
20210926213048 13 282 0.0 0.0 0.00 0.00 0.00 89 1022.4
20210926211612 14 282 0.0 0.0 0.00 0.00 0.00 89 1022.3
20210926210046 15 282 0.0 0.0 0.00 0.00 0.00 89 1022.2
20210926204629 15 282 0.0 0.0 0.00 0.00 0.00 89 1022.3
20210926203033 15 282 0.0 0.0 0.00 0.00 0.00 89 1022.0
20210926201611 15 282 0.0 0.0 0.00 0.00 0.00 88 1022.0
20210926200038 16 282 0.0 0.0 0.00 0.00 0.00 88 1021.9
20210926194554 16 282 0.0 0.0 0.00 0.00 0.00 87 1021.8
20210926193026 17 282 0.0 0.0 0.00 0.00 0.00 87 1021.7
20210926191549 17 282 0.0 0.0 0.00 0.00 0.00 86 1021.3
20210926190050 18 282 0.0 0.0 0.00 0.00 0.00 85 1021.4
20210926184552 18 282 0.0 0.0 0.00 0.00 0.00 84 1021.2
20210926183049 20 213 0.0 0.0 0.00 0.00 0.00 83 1021.0
20210926181541 20 213 0.0 0.0 0.00 0.00 0.00 82 1020.9
20210926180028 21 116 0.0 0.0 0.00 0.00 0.00 81 1020.8
20210926174532 21 116 0.0 0.0 0.00 0.00 0.00 81 1020.7
20210926173030 21 116 0.0 0.0 0.00 0.00 0.00 82 1020.6
20210926171555 21 116 0.0 0.0 0.00 0.00 0.00 79 1020.4
20210926170026 22 116 0.0 0.0 0.00 0.00 0.00 79 1020.4
20210926164545 22 116 0.0 0.0 0.00 0.00 0.00 77 1020.5
20210926163022 23 116 0.0 0.0 0.00 0.00 0.00 75 1020.6
20210926161517 23 116 0.0 0.0 0.00 0.00 0.00 71 1020.5
20210926160021 24 116 0.0 0.0 0.00 0.00 0.00 70 1020.5
20210926154611 24 116 0.0 0.0 0.00 0.00 0.00 65 1020.7
20210926153032 24 115 0.0 0.0 0.00 0.00 0.00 69 1020.7
20210926151518 23 80 0.0 0.0 0.00 0.00 0.00 70 1020.7
20210926150037 23 64 0.0 0.0 0.00 0.00 0.00 66 1020.7
20210926144515 23 49 0.0 0.0 0.00 0.00 0.00 67 1020.9
20210926143034 23 142 0.0 0.0 0.00 0.00 0.00 64 1021.0
20210926141522 23 227 0.0 0.0 0.00 0.00 0.00 70 1021.1
20210926140013 23 69 0.0 0.0 0.00 0.00 0.00 74 1021.2
20210926134515 22 69 0.0 1.6 0.00 0.00 0.00 72 1021.3
20210926133017 23 85 0.0 1.6 0.00 0.00 0.00 69 1021.4
20210926131530 23 180 0.0 0.0 0.00 0.00 0.00 71 1021.5
20210926130006 22 87 0.0 0.0 0.00 0.00 0.00 73 1021.9
20210926124521 22 87 0.0 0.0 0.00 0.00 0.00 71 1022.1
20210926123004 22 334 0.0 0.0 0.00 0.00 0.00 73 1022.3
20210926121501 22 338 0.0 0.0 0.00 0.00 0.00 74 1022.5
20210926120157 21 101 0.0 0.0 0.00 0.00 0.00 77 1022.6
20210926114752 20 321 0.0 0.0 0.00 0.08 0.00 81 1022.9
20210926113129 19 86 0.0 1.6 0.00 0.08 0.00 83 1022.9
20210926111622 18 158 0.0 1.6 0.00 0.08 0.00 86 1023.0
20210926110056 17 117 0.0 0.0 0.00 0.08 0.00 89 1023.1
20210926104547 17 109 0.0 0.0 0.00 0.08 0.00 91 1023.1
20210926103044 16 118 0.0 0.0 0.00 0.08 0.00 93 1023.0
20210926101550 16 104 0.0 0.0 0.00 0.08 0.00 94 1023.1
20210926100045 16 175 0.0 1.6 0.00 0.08 0.00 94 1023.0
20210926094739 15 260 0.0 0.0 0.00 0.08 0.00 94 1022.9
20210926093113 15 260 0.0 0.0 0.00 0.08 0.00 94 1022.8
20210926091527 15 260 0.0 0.0 0.00 0.08 0.00 94 1022.8
20210926090023 14 260 0.0 0.0 0.00 0.08 0.00 94 1022.7
20210926084605 13 260 0.0 0.0 0.00 0.08 0.00 94 1022.5
20210926083016 13 261 0.0 0.0 0.00 0.08 0.00 94 1022.5
20210926081524 13 261 0.0 0.0 0.00 0.08 0.00 94 1022.4
20210926080013 12 261 0.0 0.0 0.00 0.08 0.00 93 1022.1
20210926074527 12 261 0.0 0.0 0.00 0.10 0.00 93 1022.0
20210926073004 12 261 0.0 0.0 0.00 0.10 0.00 93 1021.7
20210926071505 12 261 0.0 0.0 0.00 0.10 0.00 93 1021.7